FLOCK 3M-3

Last updated on Wed Feb 14 2018 16:20:54 GMT+0000 (Greenwich Mean Time)

1 42996U 17068K 18045.52719095 .00004378 00000-0 21533-3 0 9997 2 42996 97.3405 161.5915 0016346 212.8947 147.1272 15.18412734 16020
UTC large
Height (km)
Speed (km/s)
/
Latitude / Longitude
Inclination (degrees)
Orbital Period (minutes)
Azimuth
Elevation
Range (km)
Doppler Factor

Next 0 passes for location: London (51.5072 / 0.1276)

Sorry there are no passes over London.